Location: Seattle
(47.6064°N, 122.3308°W)
Time: 00:47:28
(UTC-07:00)

STRAND 1 - Pass Details

Date: 05 April 2023
Orbit: 767 x 779 km, 98.4° (Epoch: 02 June)

Event Time Altitude Azimuth Distance (km) Brightness Sun altitude
Rises 20:55:58 0° 7° (N) 3,251 ? -12.3°
Reaches altitude 10° 20:58:25 10° 359° (N) 2,319 ? -12.6°
Maximum altitude 21:03:04 37° 294° (WNW) 1,191 ? -13.3°
Drops below altitude 10° 21:07:41 10° 228° (SW) 2,305 ? -14.0°
Sets 21:10:07 0° 221° (SW) 3,228 ? -14.4°
